Find Starlink 36260

NORAD ID: 67732 Int'l Des: 2026-026 Owner: SPXS Country: US Constellation: starlink operational
LEOCIRCULARRETROGRADE

实时位置

正在加载3D地球...

关于 Starlink 36260

正在加载描述...

即将过境

Passes for default location (London). Set your location on the main map for personalized predictions.

高度历史

Loading altitude history...

两行轨道根数

1 67732U 26026M 26121.13442955 .00017219 00000-0 53426-3 0 9999
2 67732 97.2847 175.0042 0002050 54.9610 305.1825 15.33457037 12167
Epoch: May 1, 2026 • Age: 13 hours

当前状态

高度 466.7 km
速度 7.63 km/s
星下点 15.25°N, 76.62°E
发射日期 Feb 11, 2026
运行时间 0.2 years
类型 internet

技术详情

分类 Payload
质量 575.00 kg
干质量 530.00 kg
总质量 575.00 kg
长度 0.30 m
直径 4.10 m
跨度 29.00 m
形状 Box + pan
制造商 SPXS
平台类型 Starlink V2MO
阶段状态 In Orbit
所有者/国家 SPXS/US

Most Searched